When you browse on this site, cookies collect data to enhance your experience and personalize the content and advertising you see.
Visit our Privacy Policy to learn more. By continuing to use the site, you agree to this use of cookies and data.
  • In France
  • List of Countries
  • For 7 days
  • Water Temperature
  • Satellite Maps
  • Weather Map
  • Weather Widgets
  • user-avatar
    Login

    Hourly Weather Fedoseevskiy

    Today, 23 May, Thursday

    Time Temperature Precipitation Wind Pressure Humidity
    00:00 +15°C° 0 mm 2 mps 740 mmHg 93%
    01:00 +15°C° 0 mm 2 mps 740 mmHg 93%
    02:00 +14°C° 0 mm 2 mps 739 mmHg 94%
    03:00 +15°C° 0 mm 2 mps 739 mmHg 94%
    04:00 +15°C° 0 mm 2 mps 739 mmHg 94%
    05:00 +15°C° 0 mm 2 mps 739 mmHg 94%
    06:00 +17°C° 0.1 mm 2 mps 739 mmHg 89%
    07:00 +18°C° 0.1 mm 2 mps 739 mmHg 85%
    08:00 +20°C° 0.1 mm 3 mps 739 mmHg 80%
    09:00 +21°C° 0.4 mm 3 mps 739 mmHg 74%
    10:00 +22°C° 0.4 mm 3 mps 738 mmHg 68%
    11:00 +24°C° 0.4 mm 3 mps 738 mmHg 62%
    12:00 +25°C° 0 mm 3 mps 738 mmHg 59%
    13:00 +26°C° 0 mm 3 mps 738 mmHg 56%
    14:00 +26°C° 0 mm 3 mps 738 mmHg 53%
    15:00 +26°C° 0.2 mm 2 mps 738 mmHg 58%
    16:00 +25°C° 0.2 mm 2 mps 738 mmHg 62%
    17:00 +25°C° 0.2 mm 2 mps 738 mmHg 66%
    18:00 +23°C° 0.6 mm 2 mps 738 mmHg 71%
    19:00 +20°C° 0.6 mm 2 mps 738 mmHg 76%
    20:00 +18°C° 0.6 mm 2 mps 738 mmHg 80%
    21:00 +18°C° 0.2 mm 2 mps 738 mmHg 83%
    22:00 +17°C° 0.2 mm 2 mps 738 mmHg 86%
    23:00 +17°C° 0.2 mm 2 mps 738 mmHg 88%

    Tomorrow, 24 May, Friday

    Time Temperature Precipitation Wind Pressure Humidity
    00:00 +16°C° 0 mm 2 mps 738 mmHg 90%
    01:00 +16°C° 0 mm 2 mps 739 mmHg 91%
    02:00 +15°C° 0 mm 2 mps 739 mmHg 93%
    03:00 +16°C° 0.2 mm 2 mps 739 mmHg 93%
    04:00 +16°C° 0.2 mm 2 mps 739 mmHg 94%
    05:00 +16°C° 0.2 mm 1 mps 740 mmHg 94%
    06:00 +17°C° 0.2 mm 2 mps 740 mmHg 92%
    07:00 +18°C° 0.2 mm 2 mps 740 mmHg 90%
    08:00 +18°C° 0.2 mm 3 mps 741 mmHg 88%
    09:00 +18°C° 0 mm 3 mps 741 mmHg 87%
    10:00 +18°C° 0 mm 4 mps 741 mmHg 87%
    11:00 +18°C° 0 mm 4 mps 741 mmHg 86%
    12:00 +18°C° 0 mm 4 mps 741 mmHg 85%
    13:00 +19°C° 0 mm 4 mps 741 mmHg 83%
    14:00 +19°C° 0 mm 5 mps 741 mmHg 82%
    15:00 +19°C° 0 mm 4 mps 741 mmHg 82%
    16:00 +18°C° 0 mm 4 mps 741 mmHg 83%
    17:00 +18°C° 0 mm 3 mps 741 mmHg 83%
    18:00 +17°C° 0 mm 3 mps 741 mmHg 86%
    19:00 +16°C° 0 mm 3 mps 741 mmHg 89%
    20:00 +14°C° 0 mm 4 mps 741 mmHg 92%
    21:00 +14°C° 0 mm 4 mps 741 mmHg 92%
    22:00 +13°C° 0 mm 4 mps 741 mmHg 93%
    23:00 +13°C° 0 mm 4 mps 741 mmHg 93%

    Day after tomorrow, 25 May, Saturday

    Time Temperature Precipitation Wind Pressure Humidity
    00:00 +13°C° 0 mm 3 mps 741 mmHg 94%
    01:00 +13°C° 0 mm 3 mps 741 mmHg 95%
    02:00 +12°C° 0 mm 3 mps 741 mmHg 95%
    03:00 +13°C° 0.1 mm 3 mps 741 mmHg 95%
    04:00 +13°C° 0.1 mm 3 mps 740 mmHg 95%
    05:00 +13°C° 0.1 mm 3 mps 740 mmHg 95%
    06:00 +14°C° 0.1 mm 3 mps 740 mmHg 93%
    07:00 +16°C° 0.1 mm 3 mps 740 mmHg 92%
    08:00 +16°C° 0.1 mm 3 mps 740 mmHg 91%
    09:00 +17°C° 0 mm 3 mps 740 mmHg 89%
    10:00 +18°C° 0 mm 3 mps 739 mmHg 87%
    11:00 +19°C° 0 mm 3 mps 739 mmHg 85%
    12:00 +20°C° 1 mm 3 mps 739 mmHg 81%
    13:00 +21°C° 1 mm 3 mps 738 mmHg 77%
    14:00 +22°C° 1 mm 3 mps 738 mmHg 72%
    15:00 +22°C° 0.6 mm 3 mps 738 mmHg 75%
    16:00 +21°C° 0.6 mm 3 mps 738 mmHg 77%
    17:00 +21°C° 0.6 mm 3 mps 737 mmHg 80%
    18:00 +20°C° 0.2 mm 3 mps 737 mmHg 83%
    19:00 +18°C° 0.2 mm 2 mps 737 mmHg 87%
    20:00 +17°C° 0.2 mm 2 mps 737 mmHg 90%
    21:00 +16°C° 0 mm 2 mps 737 mmHg 91%
    22:00 +16°C° 0 mm 2 mps 736 mmHg 92%
    23:00 +15°C° 0 mm 2 mps 736 mmHg 93%

    26 May, Sunday

    Time Temperature Precipitation Wind Pressure Humidity
    00:00 +15°C° 0 mm 2 mps 736 mmHg 93%
    01:00 +15°C° 0 mm 2 mps 736 mmHg 93%
    02:00 +14°C° 0 mm 1 mps 736 mmHg 93%
    03:00 +15°C° 0 mm 1 mps 736 mmHg 93%
    04:00 +15°C° 0 mm 1 mps 736 mmHg 92%
    05:00 +15°C° 0 mm 1 mps 736 mmHg 92%
    06:00 +16°C° 0 mm 2 mps 736 mmHg 90%
    07:00 +17°C° 0 mm 3 mps 737 mmHg 87%
    08:00 +19°C° 0 mm 3 mps 737 mmHg 85%
    09:00 +20°C° 0.1 mm 4 mps 737 mmHg 78%
    10:00 +21°C° 0.1 mm 4 mps 737 mmHg 71%
    11:00 +22°C° 0.1 mm 4 mps 737 mmHg 64%
    12:00 +22°C° 0 mm 4 mps 737 mmHg 62%
    13:00 +22°C° 0 mm 4 mps 737 mmHg 60%
    14:00 +23°C° 0 mm 4 mps 737 mmHg 58%
    15:00 +22°C° 0 mm 4 mps 737 mmHg 61%
    16:00 +22°C° 0 mm 4 mps 737 mmHg 64%
    17:00 +21°C° 0 mm 3 mps 737 mmHg 68%
    18:00 +19°C° 0 mm 3 mps 738 mmHg 71%
    19:00 +17°C° 0 mm 3 mps 738 mmHg 75%
    20:00 +14°C° 0 mm 3 mps 738 mmHg 79%
    21:00 +13°C° 0 mm 3 mps 738 mmHg 81%
    22:00 +13°C° 0 mm 3 mps 738 mmHg 84%
    23:00 +12°C° 0 mm 3 mps 738 mmHg 87%

    27 May, Monday

    Time Temperature Precipitation Wind Pressure Humidity
    00:00 +11°C° 0 mm 3 mps 738 mmHg 87%
    01:00 +11°C° 0 mm 3 mps 739 mmHg 88%
    02:00 +11°C° 0 mm 3 mps 739 mmHg 89%
    03:00 +12°C° 0 mm 4 mps 739 mmHg 86%
    04:00 +12°C° 0 mm 4 mps 739 mmHg 83%
    05:00 +13°C° 0 mm 5 mps 739 mmHg 80%
    06:00 +14°C° 0 mm 5 mps 739 mmHg 77%
    07:00 +15°C° 0 mm 6 mps 739 mmHg 74%
    08:00 +16°C° 0 mm 6 mps 740 mmHg 71%
    09:00 +17°C° 0 mm 7 mps 740 mmHg 66%
    10:00 +18°C° 0 mm 7 mps 741 mmHg 62%
    11:00 +18°C° 0 mm 7 mps 741 mmHg 57%
    12:00 +18°C° 0 mm 7 mps 741 mmHg 57%
    13:00 +20°C° 0 mm 7 mps 742 mmHg 57%
    14:00 +20°C° 0 mm 7 mps 742 mmHg 56%
    15:00 +20°C° 0 mm 6 mps 742 mmHg 60%
    16:00 +20°C° 0 mm 5 mps 742 mmHg 63%
    17:00 +20°C° 0 mm 4 mps 743 mmHg 66%
    18:00 +18°C° 0 mm 3 mps 743 mmHg 70%
    19:00 +16°C° 0 mm 3 mps 743 mmHg 75%
    20:00 +14°C° 0 mm 2 mps 744 mmHg 79%
    21:00 +14°C° 0 mm 2 mps 744 mmHg 79%
    22:00 +13°C° 0 mm 2 mps 744 mmHg 80%
    23:00 +12°C° 0 mm 2 mps 745 mmHg 81%

    28 May, Tuesday

    Time Temperature Precipitation Wind Pressure Humidity
    00:00 +12°C° 0 mm 1 mps 745 mmHg 81%
    01:00 +12°C° 0 mm 1 mps 745 mmHg 82%
    02:00 +11°C° 0 mm 1 mps 745 mmHg 82%
    03:00 +12°C° 0 mm 1 mps 746 mmHg 82%
    04:00 +13°C° 0 mm 1 mps 746 mmHg 81%
    05:00 +13°C° 0 mm 1 mps 746 mmHg 80%
    06:00 +15°C° 0 mm 2 mps 746 mmHg 78%
    07:00 +17°C° 0 mm 3 mps 746 mmHg 76%
    08:00 +19°C° 0 mm 3 mps 746 mmHg 74%
    09:00 +20°C° 0.1 mm 4 mps 746 mmHg 74%
    10:00 +21°C° 0.1 mm 4 mps 746 mmHg 75%
    11:00 +22°C° 0.1 mm 5 mps 746 mmHg 75%
    12:00 +22°C° 0.3 mm 5 mps 745 mmHg 75%
    13:00 +23°C° 0.3 mm 4 mps 745 mmHg 74%
    14:00 +25°C° 0.3 mm 4 mps 745 mmHg 74%
    15:00 +25°C° 0 mm 3 mps 745 mmHg 74%
    16:00 +25°C° 0 mm 3 mps 745 mmHg 75%
    17:00 +25°C° 0 mm 3 mps 744 mmHg 76%
    18:00 +24°C° 0 mm 3 mps 744 mmHg 79%
    19:00 +22°C° 0 mm 4 mps 744 mmHg 82%
    20:00 +21°C° 0 mm 4 mps 744 mmHg 86%
    21:00 +20°C° 0 mm 4 mps 744 mmHg 85%
    22:00 +20°C° 0 mm 4 mps 744 mmHg 84%
    23:00 +19°C° 0 mm 4 mps 744 mmHg 83%
    Show more